Stations météo

réclame
Mon MeteoGroup
Charleroi/Gosselies, Belgique (6449): Température de l'air & dewpoint: 13.06.2019 07:00:00 - 19.06.2019 07:00:00 (CEST)Charleroi/Gosselies, Belgique (6449): Vitesse du vent & gusts: 13.06.2019 07:00:00 - 19.06.2019 07:00:00 (CEST)Charleroi/Gosselies, Belgique (6449): Direction du vent: 13.06.2019 07:00:00 - 19.06.2019 07:00:00 (CEST)Charleroi/Gosselies, Belgique (6449): reduced air pressure: 13.06.2019 07:00:00 - 19.06.2019 07:00:00 (CEST)Charleroi/Gosselies, Belgique (6449): visibility: 13.06.2019 07:00:00 - 19.06.2019 07:00:00 (CEST)
Date & Time tt [°C] td [°C] ff [km/h] ff [knt] fx [km/h] fx [knt] dd ppp [hPa] vv [km]
19.06.2019 07:00:00 18,0 15,0 4 2 - - - - 10
19.06.2019 06:00:00 18,1 14,1 9 5 18 10 SSE 1007,1 10
19.06.2019 05:00:00 17,6 13,7 11 6 - - SE 1007,8 10
19.06.2019 04:00:00 17,7 13,6 8 4 11 6 SE 1008,5 10
19.06.2019 03:00:00 18,0 13,8 8 4 14 8 SE 1009,1 10
19.06.2019 02:00:00 18,8 14,1 9 5 - - SE 1009,7 10
19.06.2019 01:00:00 18,8 13,5 5 3 11 6 SE 1010,2 10
19.06.2019 00:00:00 18,8 13,1 5 3 11 6 SE 1010,9 10
18.06.2019 23:00:00 20,1 13,7 5 3 - - S 1011,4 10
18.06.2019 22:00:00 22,2 15,1 8 4 11 6 ESE 1011,4 10
18.06.2019 21:00:00 24,0 14,9 9 5 18 10 ENE 1011,2 10
18.06.2019 20:00:00 24,8 14,6 13 7 - - E 1010,9 10
18.06.2019 19:00:00 25,9 14,0 13 7 22 12 ENE 1011,2 10
18.06.2019 18:00:00 25,0 13,7 11 6 22 12 NNE 1011,9 10
18.06.2019 17:00:00 25,7 13,7 11 6 - - NNE 1012,4 10
18.06.2019 16:00:00 24,8 14,3 9 5 29 16 NE 1013,0 10
18.06.2019 15:00:00 24,2 13,2 8 4 22 12 ESE 1013,6 10
18.06.2019 14:00:00 23,8 13,5 13 7 - - NE 1014,0 10
18.06.2019 13:00:00 24,6 13,8 11 6 18 10 ENE 1014,3 10
18.06.2019 12:00:00 24,0 15,4 11 6 18 10 ENE 1014,6 10
18.06.2019 11:00:00 22,9 14,3 11 6 - - ENE 1014,9 10
18.06.2019 10:00:00 21,5 14,2 5 3 14 8 NE 1015,3 10
18.06.2019 09:00:00 20,5 15,1 4 2 7 4 - 1015,8 10
18.06.2019 08:00:00 19,6 14,1 0 0 - - N 1015,7 10
18.06.2019 07:00:00 15,9 13,3 4 2 7 4 - 1016,0 10
18.06.2019 06:00:00 14,4 12,9 2 1 7 4 - 1016,1 10
18.06.2019 05:00:00 14,7 13,1 2 1 - - SE 1016,2 10
18.06.2019 04:00:00 15,6 12,4 4 2 4 2 E 1016,4 10
18.06.2019 03:00:00 15,8 12,4 4 2 7 4 - 1016,8 10
18.06.2019 02:00:00 16,9 12,7 2 1 - - - 1017,2 10
18.06.2019 01:00:00 17,3 12,8 5 3 7 4 NNW 1017,5 10
18.06.2019 00:00:00 18,3 13,2 5 3 11 6 NNW 1017,3 10
17.06.2019 23:00:00 19,7 13,0 5 3 - - N 1017,2 10
17.06.2019 22:00:00 21,0 12,7 4 2 11 6 - 1017,1 10
17.06.2019 21:00:00 22,6 12,9 5 3 14 8 NW 1017,1 10
17.06.2019 20:00:00 22,6 13,1 8 4 - - NNW 1017,1 10
17.06.2019 19:00:00 22,6 12,3 8 4 18 10 NW 1017,4 10
17.06.2019 18:00:00 23,4 12,4 9 5 18 10 NNW 1017,7 10
17.06.2019 17:00:00 23,6 12,5 5 3 - - N 1018,0 10
17.06.2019 16:00:00 24,7 13,0 2 1 14 8 - 1018,3 10
17.06.2019 15:00:00 23,8 12,2 4 2 18 10 - 1018,8 10
17.06.2019 14:00:00 22,8 12,5 8 4 - - SSE 1019,3 10
17.06.2019 13:00:00 22,4 11,7 4 2 29 16 - 1019,8 10
17.06.2019 12:00:00 22,4 12,1 7 4 22 12 - 1020,1 20
17.06.2019 11:00:00 20,7 11,8 13 7 - - SSW 1020,7 10
17.06.2019 10:00:00 19,9 12,9 9 5 18 10 S 1020,9 10
17.06.2019 09:00:00 17,3 13,0 5 3 11 6 S 1021,2 10
17.06.2019 08:00:00 15,6 12,8 7 4 - - SSE 1021,1 20
17.06.2019 07:00:00 13,7 12,2 8 4 14 8 S 1021,2 10
17.06.2019 06:00:00 12,5 11,5 8 4 11 6 SSE 1021,3 10
17.06.2019 05:00:00 12,4 11,5 8 4 - - SSE 1021,3 10
17.06.2019 04:00:00 12,5 11,8 8 4 14 8 SSE 1021,5 10
17.06.2019 03:00:00 13,6 12,1 9 5 14 8 SE 1021,6 10
17.06.2019 02:00:00 14,3 12,4 11 6 - - SE 1021,6 20
17.06.2019 01:00:00 14,5 13,1 11 6 14 8 SE 1021,7 10
17.06.2019 00:00:00 15,1 13,3 8 4 14 8 SE 1021,8 10
16.06.2019 23:00:00 15,1 13,6 8 4 - - E 1021,8 10
16.06.2019 22:00:00 16,3 14,2 8 4 11 6 E 1021,4 10
16.06.2019 21:00:00 19,3 14,4 4 2 11 6 - 1021,1 10
16.06.2019 20:00:00 17,7 13,7 8 4 - - NW 1021,3 10
16.06.2019 19:00:00 19,3 11,3 21 11 25 14 WSW 1021,0 10
16.06.2019 18:00:00 20,4 13,7 9 5 18 10 WSW 1020,7 10
16.06.2019 17:00:00 17,1 13,2 11 6 - - W 1021,4 10
16.06.2019 16:00:00 19,8 11,6 15 8 25 14 SW 1021,1 10
16.06.2019 15:00:00 19,5 11,4 15 8 25 14 SSW 1021,0 10
16.06.2019 14:00:00 17,9 10,8 15 8 - - WSW 1021,1 10
16.06.2019 13:00:00 17,9 11,2 24 13 32 18 SSW 1021,3 10
16.06.2019 12:00:00 16,2 10,6 18 10 32 18 SW 1021,3 10
16.06.2019 11:00:00 16,1 11,8 18 10 - - SW 1021,0 10
16.06.2019 10:00:00 15,7 11,9 22 12 32 18 SW 1020,7 10
16.06.2019 09:00:00 14,8 11,2 22 12 32 18 SW 1020,5 10
16.06.2019 08:00:00 14,6 11,1 21 11 - - SW 1020,1 10
16.06.2019 07:00:00 13,3 10,4 21 11 29 16 SW 1019,8 10
16.06.2019 06:00:00 12,3 10,0 16 9 25 14 SSW 1019,5 10
16.06.2019 05:00:00 12,8 9,5 15 8 - - SSW 1019,6 10
16.06.2019 04:00:00 13,5 9,6 13 7 18 10 SSW 1018,9 10
16.06.2019 03:00:00 13,3 9,8 11 6 18 10 S 1019,0 10
16.06.2019 02:00:00 13,9 10,0 9 5 - - SSW 1018,8 10
16.06.2019 01:00:00 14,4 9,9 11 6 14 8 SSW 1018,5 10
16.06.2019 00:00:00 15,5 9,2 9 5 18 10 SW 1017,8 10
15.06.2019 23:00:00 16,4 9,4 13 7 - - SW 1017,3 10
15.06.2019 22:00:00 17,1 9,3 13 7 25 14 SW 1016,8 10
15.06.2019 21:00:00 19,1 8,6 15 8 29 16 SW 1016,3 10
15.06.2019 20:00:00 19,6 8,8 21 11 - - WSW 1016,0 10
15.06.2019 19:00:00 20,1 8,7 22 12 32 18 SW 1015,8 10
15.06.2019 18:00:00 19,6 8,8 22 12 36 19 SSW 1015,9 10
15.06.2019 17:00:00 20,9 10,4 22 12 - - SW 1015,7 10
15.06.2019 16:00:00 20,6 9,1 26 14 40 21 SW 1015,6 10
15.06.2019 15:00:00 20,4 10,6 21 11 36 19 WSW 1015,3 10
15.06.2019 14:00:00 20,0 10,7 16 9 - - WSW 1015,4 10
15.06.2019 13:00:00 19,7 13,2 15 8 32 18 W 1015,0 10
15.06.2019 12:00:00 18,1 14,2 24 13 32 18 WSW 1014,8 10
15.06.2019 11:00:00 15,6 14,9 16 9 - - WSW 1014,3 4,0
15.06.2019 10:00:00 14,2 14,0 5 3 11 6 SW 1013,9 1,3
15.06.2019 09:00:00 13,9 13,5 7 4 11 6 SW 1013,2 2,2
15.06.2019 08:00:00 13,3 12,9 5 3 - - SW 1012,7 2,2
15.06.2019 07:00:00 12,9 12,5 11 6 18 10 SSW 1012,4 2,0
15.06.2019 06:00:00 12,5 11,9 11 6 18 10 NNW 1011,7 2,5
15.06.2019 05:00:00 12,7 12,2 4 2 - - - 1012,0 2,5
15.06.2019 04:00:00 14,0 13,4 11 6 18 10 NW 1011,2 2,5
15.06.2019 03:00:00 15,9 15,1 9 5 14 8 NW 1010,9 5
15.06.2019 02:00:00 16,6 15,2 11 6 - - N 1010,7 20
15.06.2019 01:00:00 16,9 14,4 4 2 18 10 - 1012,0 10
15.06.2019 00:00:00 18,2 14,0 11 6 18 10 NE 1012,3 10
14.06.2019 23:00:00 19,5 13,3 5 3 - - NNW 1012,5 10
14.06.2019 22:00:00 20,0 13,5 5 3 11 6 NNW 1012,6 10
14.06.2019 21:00:00 20,9 12,7 5 3 14 8 NNW 1012,2 10
14.06.2019 20:00:00 21,5 12,8 8 4 - - NW 1012,1 10
14.06.2019 19:00:00 22,1 11,9 9 5 18 10 SW 1012,3 10
14.06.2019 18:00:00 22,9 13,1 11 6 25 14 SSW 1012,6 10
14.06.2019 17:00:00 22,3 12,8 13 7 - - SSW 1013,0 10
14.06.2019 16:00:00 21,4 12,4 13 7 32 18 SSW 1013,7 10
14.06.2019 15:00:00 20,5 12,8 18 10 29 16 S 1014,4 10
14.06.2019 14:00:00 19,6 12,1 16 9 - - S 1014,8 10
14.06.2019 13:00:00 19,3 12,0 15 8 32 18 SSW 1015,0 10
14.06.2019 12:00:00 18,1 11,5 21 11 32 18 SW 1014,8 10
14.06.2019 11:00:00 18,2 11,5 22 12 - - S 1014,3 10
14.06.2019 10:00:00 16,6 11,9 15 8 25 14 S 1013,6 10
14.06.2019 09:00:00 13,3 11,7 13 7 32 18 ESE 1013,5 10
14.06.2019 08:00:00 13,8 11,6 18 10 - - S 1015,0 10
14.06.2019 07:00:00 12,5 10,1 9 5 22 12 S 1013,8 10
14.06.2019 06:00:00 12,3 9,7 8 4 11 6 SSE 1013,5 10
14.06.2019 05:00:00 11,4 9,9 8 4 - - SSE 1013,1 10
14.06.2019 04:00:00 12,4 9,8 5 3 11 6 SSE 1012,8 10
14.06.2019 03:00:00 12,5 9,8 8 4 11 6 SSE 1013,3 10
14.06.2019 02:00:00 12,4 10,1 8 4 - - SSE 1013,7 10
14.06.2019 01:00:00 13,3 10,7 8 4 11 6 S 1013,7 10
14.06.2019 00:00:00 13,3 11,6 5 3 14 8 SE 1013,7 10
13.06.2019 23:00:00 14,8 10,6 11 6 - - SW 1013,3 10
13.06.2019 22:00:00 16,0 10,4 16 9 25 14 S 1012,2 10
13.06.2019 21:00:00 16,5 11,1 16 9 40 21 S 1011,7 10
13.06.2019 20:00:00 17,3 10,5 28 15 - - S 1011,5 10
13.06.2019 19:00:00 17,0 9,9 24 13 50 27 S 1011,1 10
13.06.2019 18:00:00 17,8 8,7 28 15 54 29 SSW 1011,3 10
13.06.2019 17:00:00 17,6 8,6 31 17 - - SSW 1011,4 10
13.06.2019 16:00:00 17,9 9,3 34 18 54 29 SSW 1011,5 10
13.06.2019 15:00:00 15,5 9,2 26 14 50 27 S 1012,1 10
13.06.2019 14:00:00 15,3 8,2 29 16 - - S 1012,1 9
13.06.2019 13:00:00 15,8 8,1 28 15 47 25 SSW 1012,2 10
13.06.2019 12:00:00 15,0 8,3 22 12 43 23 S 1012,3 10
13.06.2019 11:00:00 13,8 8,2 28 15 - - S 1012,3 10
13.06.2019 10:00:00 13,6 9,0 29 16 43 23 S 1012,2 10
13.06.2019 09:00:00 13,0 8,9 24 13 43 23 S 1012,1 10
13.06.2019 08:00:00 11,7 8,6 24 13 - - S 1011,9 10
13.06.2019 07:00:00 11,2 8,7 22 12 36 19 S 1011,7 10

tt = Température de l'air
td = dewpoint
ff = Vitesse du vent
fx = gusts
dd = Direction du vent
ppp = reduced air pressure
vv = visibility

stations d'obs. à proximité